Regional Weather Roundup
Issued by NWS

Home | Current Version | Previous Version | Graphics & Text | Print | Product List | Glossary On
Versions: 1 2 3 4 5 6 7 8 9 10 11 12 13 14 15 16 17 18 19 20 21 22 23 24 25 26 27 28 29 30 31 32 33 34 35 36 37 38 39 40 41 42 43 44 45 46 47 48 49 50
000
ASUS45 KTFX 241019
RWRMT
MONTANA HOURLY WEATHER ROUNDUP
NATIONAL WEATHER SERVICE GREAT FALLS MT
419 AM MDT THU JUL 24 2014

NOTE: "FAIR" INDICATES FEW OR NO CLOUDS BELOW 12000 FEET WITH NO
SIGNIFICANT WEATHER AND/OR OBSTRUCTIONS TO VISIBILITY.

* THESE STATIONS ARE NOT UNDER NWS QUALITY CONTROL. THEY DO NOT
   REPORT WEATHER SUCH AS PRECIPITATION OR FOG.

MTZ001>007-043-241100-
WEST OF THE DIVIDE
CITY           SKY/WX    TMP DP  RH WIND       PRES   REMARKS
KALISPELL      LGT RAIN  63  52  68 CALM      29.99R
MISSOULA       CLOUDY    63  43  48 W12       30.04R
BUTTE          CLEAR     48  45  89 NW6       30.02S
MULLAN PASS    CLOUDY    43  41  93 VRB7      30.11F
* ESSEX        N/A       63  51  65 W1         N/A
* LINCOLN      N/A       50  50 100 SE1        N/A
* LOOKOUT PASS N/A       49  45  86 SE4G9      N/A
* POLSON       N/A       61  44  54 W2G8       N/A
* RONAN APT    MOCLDY    64  48  56 SW5        N/A
* SEELEY LAKE  N/A       58  50  75 SW2G9      N/A
* THOMP F APT  CLOUDY    64  34  33 NE5        N/A
$$

MTZ008-052>055-241100-
SOUTHWEST MONTANA
CITY           SKY/WX    TMP DP  RH WIND       PRES   REMARKS
BOZEMAN        MOCLDY    61  46  58 SE9       29.93S
DILLON         PTCLDY    55  37  51 SE9       29.97S
W YELLOWSTONE  MOCLDY    46  39  77 CALM      30.12S
* THREE FORKS  MOCLDY    57  57 100 N/A        N/A
* BOULDER HILL N/A       58  45  62 S5         N/A
* MONIDA PASS  N/A       59  31  35 SE3        N/A
* RAYNOLDS PAS N/A       59  45  60 SW10       N/A
* WHITEHALL    N/A       56  50  80 N2G7       N/A
* WISE RIVER   N/A       49  44  83 SE4        N/A
$$

MTZ009>010-012-014-046-048-049-054-241100-
EAST SLOPES AND CENTRAL MONTANA
CITY           SKY/WX    TMP DP  RH WIND       PRES   REMARKS
CUT BANK       CLEAR     57  52  83 N3        29.93R
GREAT FALLS    CLEAR     61  54  78 NW14G28   29.88R
HELENA         CLEAR     59  48  67 NW9       29.90S
MALMSTROM AFB  CLEAR     59  54  84 VRB5G18   29.88R
* CONRAD       CLEAR     61  59  93 NW6        N/A
* DEARBORN     N/A       58  54  87 N/A        N/A
* EAST GLACIER N/A       59  48  67 W12G19     N/A
* MONARCH      N/A       55  50  83 SE2        N/A
* PENDROY      N/A       57  54  90 NE7        N/A
* SAINT MARY   N/A       61  49  65 S6G12      N/A
* SWEET GRASS  N/A       58  58 100 N9         N/A
* WHITE SULPH  N/A       53  51  93 E1         N/A
$$

MTZ011-013-016-021-035-040-045-047-050-051-241100-
NORTH CENTRAL MONTANA
CITY           SKY/WX    TMP DP  RH WIND       PRES   REMARKS
HAVRE          PTCLDY    66  57  73 E10       29.80R
LEWISTOWN      CLEAR     59  52  78 S5        29.88F
* FORT BENTON  CLEAR     63  54  73 SW9       29.84R
* CHESTER      N/A       61  55  81 S1         N/A
* DENTON       N/A       57  54  90 S8         N/A
* GEYSER       N/A       59  49  70 SW9        N/A
* JUDITH GAP   N/A       64  47  54 N/A        N/A
* LOMA         N/A       65  56  73 W8G17      N/A
$$

MTZ017>020-022>027-061-062-241100-
NORTHEAST MONTANA
CITY           SKY/WX    TMP DP  RH WIND       PRES   REMARKS
GLASGOW        MOCLDY    68  63  84 NE12      29.84R
GLENDIVE       CLOUDY    68  55  63 NW29G37   29.88R
JORDAN         PTCLDY    70  63  79 CALM      29.78S
SIDNEY         TSTM      70  55  59 W7        29.89R
WOLF POINT     CLOUDY    68  61  78 NE16      29.85R
* BEAVER HILL  N/A       67  56  68 SE28G34    N/A
* CIRCLE       N/A       67  62  84 E4G10      N/A
* LINDSAY DVD  N/A       65  57  75 W17G26     N/A
* NAVAJO       N/A       65  61  87 E9         N/A
$$

MTZ028>042-056>058-241100-
SOUTHCENTRAL AND SOUTHEAST MONTANA
CITY           SKY/WX    TMP DP  RH WIND       PRES   REMARKS
BAKER          PTCLDY    63  55  75 E13       29.83F
BILLINGS       FAIR      70  61  73 SW13      29.82S
LIVINGSTON     PTCLDY    55  46  72 VRB5      29.93R
MILES CITY     PTCLDY    68  61  78 NE9       29.76F
* LAUREL APT   CLEAR     66  57  73 N/A        N/A
* ROUNDUP APT  CLEAR     64  50  61 N/A        N/A
* ALZADA       N/A       68  63  84 E9G14      N/A
* HYSHAM       N/A       74  54  50 W2G7       N/A
* LAME DEER    N/A       74  56  54 S12        N/A
* REED POINT   N/A       60  55  84 SW3        N/A
* ROSCOE HILL  N/A       72  35  26 SW11       N/A
$$

REGIONAL REPORTS...DAKOTAS
CITY           SKY/WX    TMP DP  RH WIND       PRES   REMARKS
WILLISTON      MOCLDY    70  55  59 SE15G23   29.82F
DICKINSON      CLEAR     63  55  75 SE18      29.87F
CROSBY         N/A       64  64 100 E8        29.90S
TIOGA          CLEAR     64  64 100 SE17G24   29.91F
WATFORD CITY   CLEAR     64  57  78 SE12G23   29.85F
BISMARCK       MOCLDY    66  57  73 SE13      29.98F
GRAND FORKS    MOCLDY    61  57  87 SE5       30.10F
FARGO          MOCLDY    63  57  81 SE6       30.11F
BUFFALO SD     PTCLDY    73  57  57 SE21G35   29.75F
RAPID CITY     CLOUDY    64  63  97 SE7       29.92F
$$

REGIONAL REPORTS...WYOMING/IDAHO/WASHINGTON
CITY           SKY/WX    TMP DP  RH WIND       PRES   REMARKS
GILLETTE       MOCLDY    72  59  64 S9        29.91F
SHERIDAN       MOCLDY    63  54  73 SW7       29.86R
YELLOWSTONE LA PTCLDY    45  39  80 CALM      30.25S
SALMON         CLEAR     54  45  72 CALM      29.94R
MULLAN PASS    CLOUDY    43  41  93 VRB7      30.11S
SAND POINT     MOCLDY    55  45  69 SW8       30.04R
SPOKANE        FAIR      54  45  72 S17       30.06R
$$

REGIONAL REPORTS...ALBERTA
CITY           SKY/WX    TMP DP  RH WIND       PRES   REMARKS
CALGARY        FAIR      55  52  90 SW8       29.82R
LETHBRIDGE     CLOUDY    57  54  90 S8        29.88R
MEDICINE HAT   MOCLDY    63  61  93 SE7       29.85R
EDMONTON       MOCLDY    59  57  93 NE8       29.69F
WATERTON GATE  N/A       61  43  52 W13G21     N/A
CARDSTON       N/A       59  50  72 SW6        N/A
MILK RIVER     N/A       55  54  96 W2         N/A
$$

REGIONAL REPORTS...SASKATCHEWAN
CITY           SKY/WX    TMP DP  RH WIND       PRES   REMARKS
SWIFT CURRENT  CLOUDY    66  55  68 CALM      29.79F
MOOSE JAW      CLOUDY    66  54  65 SE7       29.90F
REGINA         MOCLDY    63  61  93 SE15G21   29.90S
VAL MARIE      N/A       61  57  87 E9         N/A
ASSINIBOIA     N/A       68  63  84 S7         N/A
CORONACH       N/A       63  61  93 N2         N/A

$$



USA.gov is the U.S. government's official web portal to all federal, state and local government web resources and services.